Wind_Speed
15 15 16 16 16 16 16 16 15 16 16 17 18 19 19 20 20 20 20 21 20 20 21 22 22 21 21 22 23 21 20 20 19
16 17 17 16 16 16 15 15 16 17 18 19 20 21 22 22 23 23 23 23 23 22 22 21 22 21 21 20 20 19 20 19 20
18 18 17 16 16 16 16 16 16 18 19 20 21 21 22 23 24 24 24 24 24 24 24 23 22 22 22 21 20 20 21 21 21
18 18 18 17 16 16 16 17 17 18 20 21 21 21 22 23 24 24 25 24 24 24 24 24 24 24 25 24 24 22 21 21 20
19 19 18 17 17 17 17 18 19 20 21 22 23 24 24 25 26 27 27 26 26 26 26 25 25 25 25 25 25 26 23 21 21
19 20 20 19 19 18 19 19 19 20 21 22 23 24 26 27 28 28 28 28 29 28 27 27 27 27 25 24 24 23 24 23 23
20 20 20 22 22 22 22 22 23 23 23 24 24 26 27 28 28 29 29 29 29 30 29 28 27 27 26 26 24 25 24 24 24
22 21 22 23 23 23 23 24 24 24 24 26 28 29 30 30 30 31 31 31 31 30 30 31 30 28 28 28 27 26 26 25 25
23 23 22 23 23 22 23 24 25 25 27 28 30 32 32 32 33 32 33 33 34 33 33 32 31 30 30 29 29 29 29 29 27
25 24 24 24 24 24 25 26 27 28 28 31 33 34 35 35 34 33 34 35 36 36 36 36 36 35 33 32 31 30 30 30 30
26 25 25 26 25 26 27 28 28 29 30 33 34 35 36 37 37 36 36 38 38 37 37 38 39 39 38 36 34 34 33 31 32
27 27 28 29 28 29 30 30 31 32 32 34 36 37 38 39 40 40 40 40 40 40 41 40 40 41 41 41 39 38 38 37 35
28 29 30 31 31 31 32 32 33 34 34 36 39 40 41 42 41 42 42 41 41 42 41 43 43 43 43 43 42 41 40 40 39
30 30 32 32 33 33 33 34 35 36 38 40 41 42 43 44 43 43 41 43 44 44 45 45 46 47 43 42 44 43 41 41 42
32 31 33 35 36 35 36 36 38 39 41 43 43 45 45 44 42 43 45 47 46 48 47 47 48 46 46 46 45 45 44 41 43
34 35 36 38 37 39 39 38 40 41 44 46 45 46 45 44 42 43 44 46 47 46 47 47 48 49 47 47 46 47 46 46 47
38 39 39 41 41 40 41 42 42 44 46 48 49 46 44 44 45 45 45 45 46 48 50 49 47 48 50 50 49 48 47 46 48
41 40 43 44 43 43 43 44 45 47 47 48 49 49 48 48 45 45 45 46 47 48 48 47 48 50 50 51 52 51 51 50 49
43 45 45 45 45 43 43 47 49 50 48 47 48 49 50 48 46 47 46 43 43 43 44 47 49 50 51 52 56 59 56 56 49
47 48 47 47 44 43 46 50 51 49 48 47 47 47 47 46 47 45 41 41 41 43 46 48 48 50 52 55 58 57 61 53 57
Wind_Direction
314 317 320 322 319 316 316 316 313 312 313 314 313 312 310 312 312 314 314 312 311 310 309 307 305 302 295 290 294 297 297 297 300
313 318 319 317 313 312 312 312 313 315 316 315 313 313 315 316 317 316 314 312 311 308 307 304 302 297 296 296 296 298 297 298 299
314 316 313 309 307 307 307 309 311 313 312 313 312 313 313 314 313 313 312 312 311 311 308 306 302 301 298 298 295 294 296 298 300
313 311 308 306 306 305 307 309 309 309 310 309 310 309 309 309 309 308 308 312 310 309 307 306 304 301 299 297 297 296 296 298 300
309 308 305 305 304 305 308 308 310 310 309 309 310 310 310 309 309 309 310 309 308 306 305 302 301 299 298 299 299 299 298 298 298
302 302 303 302 301 302 301 302 303 303 303 305 306 308 309 310 309 309 309 309 307 305 303 302 302 300 298 295 294 292 294 295 297
295 296 298 300 302 304 306 309 306 306 306 307 309 309 307 306 306 306 307 307 306 305 304 302 300 298 296 291 287 287 289 292 294
292 294 296 298 299 302 305 305 304 305 309 311 311 310 309 308 308 307 306 305 303 302 304 303 301 299 295 293 289 287 286 288 290
290 293 294 294 295 299 301 300 301 306 311 311 310 309 308 308 307 307 306 305 304 303 301 299 299 298 295 293 292 290 288 287 287
289 291 293 296 298 299 298 300 304 306 308 309 306 306 305 305 303 304 304 304 303 302 302 302 300 298 295 293 289 286 284 283 283
288 292 293 294 295 297 298 301 304 306 307 306 305 303 303 302 303 303 302 299 298 299 300 298 298 296 294 290 288 285 280 277 278
286 288 290 291 293 295 297 300 302 304 305 302 300 300 300 300 300 301 300 300 301 302 300 297 295 295 295 292 288 285 284 281 277
283 285 287 290 292 294 295 298 299 300 300 298 298 300 300 299 299 298 298 299 299 299 299 299 296 296 295 294 291 286 283 282 282
279 282 286 289 290 292 293 296 297 297 296 296 298 299 299 300 301 299 297 299 298 298 298 299 297 296 295 296 295 292 286 281 280
278 281 283 287 288 289 289 291 291 291 292 295 297 298 299 301 300 297 295 296 294 295 296 297 296 295 295 295 294 291 285 281 277
278 282 283 284 286 286 287 286 287 290 293 294 296 297 298 299 298 294 292 292 293 294 294 294 294 293 293 292 290 289 290 284 278
279 280 284 286 286 285 285 286 287 290 293 296 295 296 297 299 298 297 294 295 294 294 296 296 297 292 291 289 287 284 282 282 280
276 279 279 281 284 284 283 285 288 291 294 295 296 295 295 295 296 296 296 296 294 295 295 295 295 294 294 291 286 283 279 278 275
274 275 278 280 282 282 284 287 289 291 293 292 294 296 296 296 296 296 297 297 295 297 298 297 297 296 295 293 289 285 280 280 276
279 281 282 282 282 284 286 287 288 292 291 293 295 294 296 297 298 299 298 298 301 302 302 300 299 299 298 297 293 283 280 272 272
Height
5894 5893 5893 5892 5892 5891 5890 5889 5889 5888 5886 5884 5883 5882 5881 5880 5879 5878 5876 5875 5873 5872 5870 5868 5867 5866 5865 5863 5861 5860 5859 5859 5857
5892 5891 5891 5891 5890 5889 5888 5888 5887 5885 5884 5883 5881 5880 5879 5877 5876 5875 5873 5872 5870 5869 5867 5865 5864 5862 5861 5860 5858 5857 5856 5855 5854
5890 5889 5889 5888 5888 5887 5886 5885 5884 5883 5882 5881 5879 5878 5876 5875 5873 5872 5871 5869 5868 5866 5864 5862 5861 5859 5858 5856 5855 5854 5853 5851 5850
5887 5887 5887 5886 5885 5884 5884 5883 5882 5881 5879 5878 5877 5876 5874 5872 5871 5869 5868 5866 5864 5863 5861 5859 5858 5856 5854 5852 5852 5851 5849 5848 5846
5885 5885 5884 5883 5883 5882 5881 5880 5879 5878 5877 5875 5874 5872 5871 5869 5867 5865 5864 5862 5861 5858 5856 5855 5854 5852 5850 5850 5848 5848 5846 5844 5842
5883 5882 5882 5881 5881 5880 5879 5877 5877 5875 5874 5873 5870 5868 5867 5865 5863 5862 5860 5858 5856 5855 5853 5851 5850 5848 5846 5845 5843 5841 5841 5839 5838
5880 5879 5879 5878 5877 5876 5875 5874 5873 5872 5870 5869 5867 5865 5863 5862 5860 5858 5856 5855 5853 5850 5849 5847 5845 5843 5841 5840 5837 5836 5835 5834 5833
5876 5876 5876 5875 5874 5872 5872 5870 5869 5868 5866 5865 5863 5861 5860 5858 5856 5854 5853 5850 5848 5846 5845 5843 5841 5839 5837 5835 5833 5832 5830 5829 5828
5873 5873 5872 5871 5870 5869 5868 5867 5865 5863 5861 5860 5858 5856 5855 5853 5851 5849 5848 5845 5843 5842 5840 5838 5836 5834 5832 5831 5830 5828 5827 5825 5824
5869 5868 5867 5866 5865 5864 5864 5862 5860 5858 5857 5855 5854 5852 5850 5849 5846 5844 5842 5839 5837 5836 5834 5833 5831 5829 5828 5826 5824 5822 5821 5820 5818
5864 5863 5862 5861 5860 5859 5858 5857 5856 5854 5852 5850 5849 5847 5845 5843 5840 5839 5836 5833 5831 5830 5828 5826 5824 5822 5820 5819 5818 5816 5814 5812 5812
5859 5858 5856 5855 5855 5854 5852 5851 5850 5847 5846 5845 5843 5841 5840 5836 5834 5832 5829 5826 5824 5822 5820 5818 5816 5814 5812 5812 5811 5810 5808 5807 5805
5853 5852 5851 5850 5850 5849 5847 5845 5843 5842 5840 5838 5836 5835 5833 5830 5827 5825 5821 5818 5816 5813 5811 5810 5808 5807 5805 5803 5802 5801 5800 5799 5798
5848 5847 5846 5844 5844 5842 5840 5838 5837 5835 5833 5831 5829 5827 5825 5822 5819 5816 5813 5810 5808 5805 5803 5802 5800 5798 5797 5796 5794 5793 5791 5791 5791
5842 5841 5840 5838 5837 5836 5834 5832 5830 5829 5827 5824 5823 5820 5817 5815 5812 5808 5805 5802 5799 5797 5795 5792 5790 5789 5788 5786 5785 5783 5782 5780 5779
5834 5834 5833 5832 5831 5829 5827 5826 5824 5822 5819 5816 5815 5812 5810 5807 5804 5800 5797 5793 5790 5787 5785 5782 5780 5778 5777 5775 5774 5773 5772 5770 5769
5827 5827 5826 5825 5823 5821 5819 5818 5816 5814 5811 5807 5805 5805 5803 5798 5794 5791 5787 5784 5780 5777 5774 5772 5770 5768 5765 5764 5761 5760 5760 5759 5758
5821 5820 5818 5816 5815 5813 5812 5809 5807 5805 5803 5798 5795 5793 5793 5791 5787 5782 5778 5775 5771 5768 5765 5762 5759 5756 5754 5751 5749 5747 5745 5745 5745
5811 5811 5810 5808 5806 5804 5802 5800 5798 5795 5793 5790 5786 5783 5782 5779 5779 5774 5770 5765 5761 5759 5756 5752 5747 5744 5741 5738 5735 5732 5730 5730 5730
5799 5799 5798 5797 5796 5795 5793 5791 5788 5785 5783 5781 5778 5773 5771 5768 5765 5764 5761 5756 5752 5749 5745 5741 5737 5732 5728 5724 5719 5715 5712 5713 5715